Glendale Luke AFB, AZ

12:56 AM MST on April 25, 2017 (GMT -0700)
Luke Air Force Base

Weather History for KLUF - May, 2013

Change the Weather History Date:

Sunday, May 12, 2013

  Actual Average Record
Temperature  
Mean Temperature 80 °F -  
Max Temperature 96 °F 94 °F 108 °F (1934)
Min Temperature 65 °F 57 °F 41 °F (1953)
Cooling Degree Days 16    
Growing Degree Days 30 (Base 50)    
Moisture  
Dew Point 37 °F    
Average Humidity 20    
Maximum Humidity 36    
Minimum Humidity 10    
Precipitation  
Precipitation 0.00 in - - ()
Sea Level Pressure  
Sea Level Pressure 29.98 in    
Wind  
Wind Speed 4 mph (NW)    
Max Wind Speed 12 mph    
Max Gust Speed -    
Visibility 10 miles    
Events      
Averages and records for this station are not official NWS values.
T = Trace of Precipitation, MM = Missing Value Source: NWS Daily Summary

Daily Weather History Graph

Daily Weather History Graph

Search for Another Location

Airport or City:

Trip Planner

Search our weather history database for the weather conditions in past years. The results will help you decide how hot, cold, wet, or windy it might be!

Date:

Astronomy

May. 12, 2013 Rise Set
Actual Time 5:31 AM MST 7:21 PM MST
Civil Twilight 5:03 AM MST 7:48 PM MST
Nautical Twilight 4:30 AM MST 8:21 PM MST
Astronomical Twilight 3:55 AM MST 8:56 PM MST
Moon 7:31 AM MST (5/12) 9:49 PM MST (5/12)
Length of Visible Light 14h 44m
Length of Day
13h 50m
Waxing Crescent, 7% of the Moon is Illuminated
May 12
Waxing Crescent
May 17
First Quarter
May 24
Full
May 31
Last Quarter
Jun 8
New

Hourly Weather History & Observations

Time (MST) Temp. Dew Point Humidity Pressure Visibility Wind Dir Wind Speed Gust Speed Precip Events Conditions
12:58 AM 72.3 °F 36.0 °F 26% 30.01 in 10.0 mi North 1.2 mph - N/A   Clear
1:58 AM 73.8 °F 36.1 °F 25% 30.01 in 10.0 mi Calm Calm - N/A   Clear
2:58 AM 67.3 °F 39.6 °F 36% 30.02 in 10.0 mi NNW 6.9 mph - N/A   Clear
3:58 AM 67.6 °F 38.3 °F 34% 30.03 in 10.0 mi North 6.9 mph - N/A   Clear
4:58 AM 68.9 °F 37.8 °F 32% 30.04 in 10.0 mi Variable 3.5 mph - N/A   Clear
5:58 AM 65.8 °F 38.3 °F 36% 30.06 in 10.0 mi North 4.6 mph - N/A   Clear
6:58 AM 72.7 °F 38.3 °F 29% 30.08 in 10.0 mi NW 4.6 mph - N/A   Clear
7:58 AM 79.0 °F 38.7 °F 24% 30.09 in 10.0 mi NNE 3.5 mph - N/A   Clear
8:58 AM 84.7 °F 38.1 °F 19% 30.09 in 10.0 mi East 5.8 mph - N/A   Clear
9:58 AM 88.5 °F 37.6 °F 17% 30.08 in 10.0 mi East 11.5 mph - N/A   Clear
10:58 AM 90.3 °F 37.2 °F 15% 30.06 in 10.0 mi SSE 9.2 mph - N/A   Clear
11:58 AM 91.8 °F 36.9 °F 14% 30.03 in 10.0 mi SW 2.3 mph - N/A   Clear
12:58 PM 92.3 °F 37.2 °F 14% 30.01 in 10.0 mi West 2.3 mph - N/A   Clear
1:58 PM 94.3 °F 34.9 °F 12% 29.96 in 10.0 mi Variable 1.2 mph - N/A   Clear
2:58 PM 96.3 °F 32.0 °F 10% 29.94 in 10.0 mi North 4.6 mph - N/A   Clear
3:58 PM 96.4 °F 32.2 °F 10% 29.90 in 10.0 mi Variable 4.6 mph - 0.00 in   Clear
4:58 PM 96.8 °F 32.4 °F 10% 29.88 in 10.0 mi South 8.1 mph - N/A   Clear
5:58 PM 96.6 °F 32.2 °F 10% 29.86 in 10.0 mi South 8.1 mph - N/A   Clear
6:58 PM 95.2 °F 36.1 °F 13% 29.86 in 10.0 mi SW 10.4 mph - N/A   Clear
7:58 PM 90.3 °F 37.2 °F 15% 29.86 in 10.0 mi SW 4.6 mph - N/A   Clear
8:58 PM 86.5 °F 38.7 °F 18% 29.87 in 10.0 mi West 4.6 mph - N/A   Clear
9:58 PM 84.7 °F 37.4 °F 19% 29.89 in 10.0 mi West 2.3 mph - N/A   Clear
10:58 PM 78.4 °F 41.4 °F 27% 29.91 in 10.0 mi NNE 4.6 mph - N/A   Clear
11:58 PM 76.6 °F 40.3 °F 27% 29.91 in 10.0 mi NW 6.9 mph - N/A   Clear